Location: Newark
(33.6439°N, 114.9881°W)
Time: 14:27:09
(UTC+00:00)

Tiros 1 - Pass Details

Date: 27 July 2019
Orbit: 631 x 664 km, 48.4° (Epoch: 22 August)

Event Time Altitude Azimuth Distance (km) Brightness Sun altitude
Rises 18:12:44 0° 267° (W) 2,970 10.3 64.6°
Reaches altitude 10° 18:15:25 10° 280° (W) 2,065 9.6 65.1°
Maximum altitude 18:19:22 25° 336° (NNW) 1,320 8.9 65.8°
Drops below altitude 10° 18:23:21 10° 32° (NNE) 2,080 9.9 66.5°
Sets 18:26:04 0° 46° (NE) 2,996 10.6 67.0°
